Regional Weather Roundup
Issued by NWS Albany, NY

Home | Current Version | Previous Version | Text Only | Print | Product List | Glossary On
Versions: 1 2 3 4 5 6 7 8 9 10 11 12 13 14 15 16 17 18 19 20 21 22 23 24 25 26 27 28 29 30 31 32 33 34 35 36 37 38 39 40 41 42 43 44 45 46 47 48 49 50
000
ASUS41 KALY 160710
RWRALY

NEW YORK STATE HOURLY WEATHER ROUNDUP
NATIONAL WEATHER SERVICE ALBANY NY
300 AM EDT TUE SEP 16 2014

NOTE: "FAIR" INDICATES FEW OR NO CLOUDS BELOW 12,000 FEET WITH NO
SIGNIFICANT WEATHER AND/OR NO OBSTRUCTIONS TO VISIBILITY.

NYZ032-033-038>043-046>054-057>066-NYZ062>081-160800-
EAST


CITY           SKY/WX    TMP DP  RH WIND       PRES   REMARKS
ALBANY         LGT RAIN  55  48  77 E3        30.02F
GLENS FALLS    LGT RAIN  52  50  93 CALM      30.02F
POUGHKEEPSIE   CLOUDY    55  50  83 CALM      30.03F
NEWBURGH       MOCLDY    55  52  88 CALM      30.05F
MONTGOMERY     CLOUDY    52  50  93 CALM      30.04F
WHITE PLAINS   CLOUDY    56  53  90 CALM      30.05F
ISLIP          CLOUDY    58  51  78 CALM      30.04F
NEW YORK CITY  CLOUDY    63  54  72 S5        30.04F
CENTRAL PARK   CLOUDY    63  52  67 VRB5      30.07F
$$

NYZ005>009-017-018-044>046-055-056-160800-
CENTRAL


CITY           SKY/WX    TMP DP  RH WIND       PRES   REMARKS
FULTON         CLOUDY    54  52  93 CALM      30.02F FOG
SYRACUSE       LGT RAIN  56  54  93 CALM      30.03F
ROME           RAIN      52  52 100 NE3       30.03S
ELMIRA         LGT RAIN  55  54  96 CALM      30.02F FOG
BINGHAMTON     LGT RAIN  52  51  97 SW3       30.04F
MONTICELLO     CLOUDY    52  48  87 CALM      30.06S
$$

NYZ026>034-041>043-160800-
NORTH


CITY           SKY/WX    TMP DP  RH WIND       PRES   REMARKS
WATERTOWN      LGT RAIN  55  50  83 N5        30.00F
FORT DRUM      NOT AVBL
MASSENA        LGT RAIN  53  52  96 CALM      30.00F
SARANAC LAKE   LGT RAIN  49  48  97 CALM      30.00F FOG
PLATTSBURGH    LGT RAIN  52  51  97 W3        30.00F
$$

NYZ001>004-010>016-019>021-160800-
WEST


CITY           SKY/WX    TMP DP  RH WIND       PRES   REMARKS
NIAGARA FALLS  CLOUDY    53  51  93 S5        30.02F
BUFFALO        CLOUDY    53  51  93 SW3       30.03F
DUNKIRK        LGT RAIN  54  53  97 S5        30.04F
JAMESTOWN      CLOUDY    50  48  93 N5        30.04F
WELLSVILLE     LGT RAIN  52  50  93 W9        30.06S
ROCHESTER      LGT RAIN  55  54  96 SW6       30.03S FOG
PENN YAN       RAIN      56  56 100 SW3       30.03F FOG
$$

             KEY
       WCI = WIND CHILL INDEX
       VSB = VISIBILITY
       HX  = HEAT INDEX
$$



USA.gov is the U.S. government's official web portal to all federal, state and local government web resources and services.